owner,sensor,date,latitude,longitude,vertical_datum,wind_speed,wind_to_direction,wind_speed_of_gust,qcFlag 
COMPS,ioos:station:USF.COMPS:C13:1,2019-11-01T00:35:00,26.0630,-83.0730,1.3,1.29,33.92,1.98,'11111222,11111222,11111222' 
COMPS,ioos:station:USF.COMPS:C13:1,2019-11-01T01:35:00,26.0630,-83.0730,1.3,1.51,27.02,1.91,'11111222,11111222,11111222' 
COMPS,ioos:station:USF.COMPS:C13:1,2019-11-01T02:35:00,26.0630,-83.0730,1.3,1.65,24.98,2.23,'11111222,11111222,11111222' 
COMPS,ioos:station:USF.COMPS:C13:1,2019-11-01T03:35:00,26.0630,-83.0730,1.3,1.77,24.16,2.21,'11111222,11111222,11111222' 
COMPS,ioos:station:USF.COMPS:C13:1,2019-11-01T04:35:00,26.0630,-83.0730,1.3,1.93,9.45,2.93,'11111222,11111222,11111222' 
COMPS,ioos:station:USF.COMPS:C13:1,2019-11-01T05:35:00,26.0630,-83.0730,1.3,1.94,4.75,2.56,'11111222,11111222,11111222' 
COMPS,ioos:station:USF.COMPS:C13:1,2019-11-01T06:35:00,26.0630,-83.0730,1.3,0.82,45.46,1.53,'11111222,11111222,11111222' 
COMPS,ioos:station:USF.COMPS:C13:1,2019-11-01T07:35:00,26.0630,-83.0730,1.3,0.3,232.09,0.7,'11111222,11111222,11111222' 
COMPS,ioos:station:USF.COMPS:C13:1,2019-11-01T08:35:00,26.0630,-83.0730,1.3,1.25,337.06,2.22,'11111222,11111222,11111222' 
COMPS,ioos:station:USF.COMPS:C13:1,2019-11-01T09:35:00,26.0630,-83.0730,1.3,1.98,319.12,2.67,'11111222,11111222,11111222' 
COMPS,ioos:station:USF.COMPS:C13:1,2019-11-01T10:35:00,26.0630,-83.0730,1.3,2.94,331.36,3.9,'11111222,11111222,11111222' 
COMPS,ioos:station:USF.COMPS:C13:1,2019-11-01T11:35:00,26.0630,-83.0730,1.3,2.54,353.91,3.72,'11111222,11111222,11111222' 
COMPS,ioos:station:USF.COMPS:C13:1,2019-11-01T12:35:00,26.0630,-83.0730,1.3,2.54,16.19,3.44,'11111222,11111222,11111222' 
COMPS,ioos:station:USF.COMPS:C13:1,2019-11-01T13:35:00,26.0630,-83.0730,1.3,6.47,23.66,7.71,'11111222,11111222,11111222' 
COMPS,ioos:station:USF.COMPS:C13:1,2019-11-01T14:35:00,26.0630,-83.0730,1.3,6.37,21.12,8.21,'11111222,11111222,11111222' 
COMPS,ioos:station:USF.COMPS:C13:1,2019-11-01T15:35:00,26.0630,-83.0730,1.3,5.5,32.44,7.06,'11111222,11111222,11111222' 
COMPS,ioos:station:USF.COMPS:C13:1,2019-11-01T16:35:00,26.0630,-83.0730,1.3,5.53,18.94,6.93,'11111222,11111222,11111222' 
COMPS,ioos:station:USF.COMPS:C13:1,2019-11-01T17:35:00,26.0630,-83.0730,1.3,6.52,19.96,8.44,'11111222,11111222,11111222' 
COMPS,ioos:station:USF.COMPS:C13:1,2019-11-01T18:35:00,26.0630,-83.0730,1.3,6.81,20.17,8.43,'11111222,11111222,11111222' 
COMPS,ioos:station:USF.COMPS:C13:1,2019-11-01T19:35:00,26.0630,-83.0730,1.3,6.72,32.8,8.18,'11111222,11111222,11111222' 
COMPS,ioos:station:USF.COMPS:C13:1,2019-11-01T20:35:00,26.0630,-83.0730,1.3,5.42,25.35,6.63,'11111222,11111222,11111222' 
COMPS,ioos:station:USF.COMPS:C13:1,2019-11-01T21:35:00,26.0630,-83.0730,1.3,5.29,14.61,6.55,'11111222,11111222,11111222' 
COMPS,ioos:station:USF.COMPS:C13:1,2019-11-01T22:35:00,26.0630,-83.0730,1.3,5.51,6.84,7.38,'11111222,11111222,11111222' 
COMPS,ioos:station:USF.COMPS:C13:1,2019-11-01T23:35:00,26.0630,-83.0730,1.3,6.07,358.58,7.32,'11111222,11111222,11111222' 
COMPS,ioos:station:USF.COMPS:C13:1,2019-11-02T00:35:00,26.0630,-83.0730,1.3,6.12,8.41,7.74,'11111222,11111222,11111222' 
COMPS,ioos:station:USF.COMPS:C13:1,2019-11-02T01:35:00,26.0630,-83.0730,1.3,7.62,8.06,8.89,'11111222,11111222,11111222' 
COMPS,ioos:station:USF.COMPS:C13:1,2019-11-02T02:35:00,26.0630,-83.0730,1.3,7.45,9.52,9.17,'11111222,11111222,11111222' 
COMPS,ioos:station:USF.COMPS:C13:1,2019-11-02T03:35:00,26.0630,-83.0730,1.3,7.51,7.73,9.49,'11111222,11111222,11111222' 
COMPS,ioos:station:USF.COMPS:C13:1,2019-11-02T04:35:00,26.0630,-83.0730,1.3,6.68,3.02,8.35,'11111222,11111222,11111222' 
COMPS,ioos:station:USF.COMPS:C13:1,2019-11-02T05:35:00,26.0630,-83.0730,1.3,6.38,356.13,7.99,'11111222,11111222,11111222' 
COMPS,ioos:station:USF.COMPS:C13:1,2019-11-02T06:35:00,26.0630,-83.0730,1.3,6.64,348.87,8.52,'11111222,11111222,11111222' 
COMPS,ioos:station:USF.COMPS:C13:1,2019-11-02T07:35:00,26.0630,-83.0730,1.3,5.32,353.41,8.27,'11111222,11111222,11111222' 
COMPS,ioos:station:USF.COMPS:C13:1,2019-11-02T08:35:00,26.0630,-83.0730,1.3,6.7,346.78,8.12,'11111222,11111222,11111222' 
COMPS,ioos:station:USF.COMPS:C13:1,2019-11-02T09:35:00,26.0630,-83.0730,1.3,5.77,0.69,8.09,'11111222,11111222,11111222' 
COMPS,ioos:station:USF.COMPS:C13:1,2019-11-02T10:35:00,26.0630,-83.0730,1.3,3.37,54.22,5.2,'11111222,11111222,11111222' 
COMPS,ioos:station:USF.COMPS:C13:1,2019-11-02T11:35:00,26.0630,-83.0730,1.3,4.52,336.36,7.57,'11111222,11111222,11111222' 
COMPS,ioos:station:USF.COMPS:C13:1,2019-11-02T12:35:00,26.0630,-83.0730,1.3,7.43,337.98,9.45,'11111222,11111222,11111222' 
COMPS,ioos:station:USF.COMPS:C13:1,2019-11-02T13:35:00,26.0630,-83.0730,1.3,7.38,344.06,8.92,'11111222,11111222,11111222' 
COMPS,ioos:station:USF.COMPS:C13:1,2019-11-02T14:35:00,26.0630,-83.0730,1.3,4.03,43.97,5.81,'11111222,11111222,11111222' 
COMPS,ioos:station:USF.COMPS:C13:1,2019-11-02T15:35:00,26.0630,-83.0730,1.3,4.67,73.1,6.27,'11111222,11111222,11111222' 
COMPS,ioos:station:USF.COMPS:C13:1,2019-11-02T16:35:00,26.0630,-83.0730,1.3,3.92,76.48,5.45,'11111222,11111222,11111222' 
COMPS,ioos:station:USF.COMPS:C13:1,2019-11-02T17:35:00,26.0630,-83.0730,1.3,2.22,72.54,3.55,'11111222,11111222,11111222' 
COMPS,ioos:station:USF.COMPS:C13:1,2019-11-02T18:35:00,26.0630,-83.0730,1.3,2.78,26.49,4.07,'11111222,11111222,11111222' 
COMPS,ioos:station:USF.COMPS:C13:1,2019-11-02T19:35:00,26.0630,-83.0730,1.3,7.46,337.79,8.83,'11111222,11111222,11111222' 
COMPS,ioos:station:USF.COMPS:C13:1,2019-11-02T20:35:00,26.0630,-83.0730,1.3,7.12,345.6,8.45,'11111222,11111222,11111222' 
COMPS,ioos:station:USF.COMPS:C13:1,2019-11-02T21:35:00,26.0630,-83.0730,1.3,7.67,332.4,9.17,'11111222,11111222,11111222' 
COMPS,ioos:station:USF.COMPS:C13:1,2019-11-02T22:35:00,26.0630,-83.0730,1.3,5.06,325.6,8.81,'11111222,11111222,11111222' 
COMPS,ioos:station:USF.COMPS:C13:1,2019-11-02T23:35:00,26.0630,-83.0730,1.3,6.08,5.67,7.57,'11111222,11111222,11111222' 
COMPS,ioos:station:USF.COMPS:C13:1,2019-11-03T00:35:00,26.0630,-83.0730,1.3,9.38,1.0,10.94,'11111222,11111222,11111222' 
COMPS,ioos:station:USF.COMPS:C13:1,2019-11-03T01:35:00,26.0630,-83.0730,1.3,8.94,1.1,10.96,'11111222,11111222,11111222' 
COMPS,ioos:station:USF.COMPS:C13:1,2019-11-03T02:35:00,26.0630,-83.0730,1.3,9.54,2.34,11.37,'11111222,11111222,11111222' 
COMPS,ioos:station:USF.COMPS:C13:1,2019-11-03T03:35:00,26.0630,-83.0730,1.3,9.26,4.93,11.1,'11111222,11111222,11111222' 
COMPS,ioos:station:USF.COMPS:C13:1,2019-11-03T04:35:00,26.0630,-83.0730,1.3,8.27,14.55,10.29,'11111222,11111222,11111222' 
COMPS,ioos:station:USF.COMPS:C13:1,2019-11-03T05:35:00,26.0630,-83.0730,1.3,7.78,17.04,9.35,'11111222,11111222,11111222' 
COMPS,ioos:station:USF.COMPS:C13:1,2019-11-03T06:35:00,26.0630,-83.0730,1.3,7.94,17.65,9.9,'11111222,11111222,11111222' 
COMPS,ioos:station:USF.COMPS:C13:1,2019-11-03T07:35:00,26.0630,-83.0730,1.3,8.37,18.63,10.33,'11111222,11111222,11111222' 
COMPS,ioos:station:USF.COMPS:C13:1,2019-11-03T08:35:00,26.0630,-83.0730,1.3,8.04,18.56,9.86,'11111222,11111222,11111222' 
COMPS,ioos:station:USF.COMPS:C13:1,2019-11-03T09:35:00,26.0630,-83.0730,1.3,8.26,31.16,9.9,'11111222,11111222,11111222' 
COMPS,ioos:station:USF.COMPS:C13:1,2019-11-03T10:35:00,26.0630,-83.0730,1.3,8.3,34.46,10.02,'11111222,11111222,11111222' 
COMPS,ioos:station:USF.COMPS:C13:1,2019-11-03T11:35:00,26.0630,-83.0730,1.3,8.7,29.22,10.86,'11111222,11111222,11111222' 
COMPS,ioos:station:USF.COMPS:C13:1,2019-11-03T12:35:00,26.0630,-83.0730,1.3,8.79,27.22,10.32,'11111222,11111222,11111222' 
COMPS,ioos:station:USF.COMPS:C13:1,2019-11-03T13:35:00,26.0630,-83.0730,1.3,8.62,37.23,10.98,'11111222,11111222,11111222' 
COMPS,ioos:station:USF.COMPS:C13:1,2019-11-03T14:35:00,26.0630,-83.0730,1.3,9.55,42.81,11.49,'11111222,11111222,11111222' 
COMPS,ioos:station:USF.COMPS:C13:1,2019-11-03T15:35:00,26.0630,-83.0730,1.3,9.14,40.93,11.42,'11111222,11111222,11111222' 
COMPS,ioos:station:USF.COMPS:C13:1,2019-11-03T16:35:00,26.0630,-83.0730,1.3,8.62,50.38,10.53,'11111222,11111222,11111222' 
COMPS,ioos:station:USF.COMPS:C13:1,2019-11-03T17:35:00,26.0630,-83.0730,1.3,7.31,47.85,8.83,'11111222,11111222,11111222' 
COMPS,ioos:station:USF.COMPS:C13:1,2019-11-03T18:35:00,26.0630,-83.0730,1.3,6.6,49.21,8.01,'11111222,11111222,11111222' 
COMPS,ioos:station:USF.COMPS:C13:1,2019-11-03T19:35:00,26.0630,-83.0730,1.3,6.17,38.86,8.11,'11111222,11111222,11111222' 
COMPS,ioos:station:USF.COMPS:C13:1,2019-11-03T20:35:00,26.0630,-83.0730,1.3,6.54,33.22,9.05,'11111222,11111222,11111222' 
COMPS,ioos:station:USF.COMPS:C13:1,2019-11-03T21:35:00,26.0630,-83.0730,1.3,6.55,58.99,8.1,'11111222,11111222,11111222' 
COMPS,ioos:station:USF.COMPS:C13:1,2019-11-03T22:35:00,26.0630,-83.0730,1.3,6.64,44.03,8.18,'11111222,11111222,11111222' 
COMPS,ioos:station:USF.COMPS:C13:1,2019-11-03T23:35:00,26.0630,-83.0730,1.3,7.58,70.25,9.8,'11111222,11111222,11111222' 
COMPS,ioos:station:USF.COMPS:C13:1,2019-11-04T00:35:00,26.0630,-83.0730,1.3,8.21,70.79,10.24,'11111222,11111222,11111222' 
COMPS,ioos:station:USF.COMPS:C13:1,2019-11-04T01:35:00,26.0630,-83.0730,1.3,9.83,84.69,11.97,'11111222,11111222,11111222' 
COMPS,ioos:station:USF.COMPS:C13:1,2019-11-04T02:35:00,26.0630,-83.0730,1.3,9.91,75.08,12.14,'11111222,11111222,11111222' 
COMPS,ioos:station:USF.COMPS:C13:1,2019-11-04T03:35:00,26.0630,-83.0730,1.3,9.63,80.24,12.54,'11111222,11111222,11111222' 
COMPS,ioos:station:USF.COMPS:C13:1,2019-11-04T04:35:00,26.0630,-83.0730,1.3,9.51,80.81,12.53,'11111222,11111222,11111222' 
COMPS,ioos:station:USF.COMPS:C13:1,2019-11-04T05:35:00,26.0630,-83.0730,1.3,9.05,87.03,11.03,'11111222,11111222,11111222' 
COMPS,ioos:station:USF.COMPS:C13:1,2019-11-04T15:35:00,26.0630,-83.0730,1.3,5.99,103.3,7.4,'11111222,11111222,11111222' 
COMPS,ioos:station:USF.COMPS:C13:1,2019-11-04T16:35:00,26.0630,-83.0730,1.3,5.6,87.0,7.34,'11111222,11111222,11111222' 
COMPS,ioos:station:USF.COMPS:C13:1,2019-11-04T17:35:00,26.0630,-83.0730,1.3,5.23,99.78,6.62,'11111222,11111222,11111222' 
COMPS,ioos:station:USF.COMPS:C13:1,2019-11-04T18:35:00,26.0630,-83.0730,1.3,4.96,108.07,6.35,'11111222,11111222,11111222' 
COMPS,ioos:station:USF.COMPS:C13:1,2019-11-04T19:35:00,26.0630,-83.0730,1.3,4.45,113.64,5.32,'11111222,11111222,11111222' 
COMPS,ioos:station:USF.COMPS:C13:1,2019-11-04T20:35:00,26.0630,-83.0730,1.3,4.02,109.12,4.98,'11111222,11111222,11111222' 
COMPS,ioos:station:USF.COMPS:C13:1,2019-11-04T21:35:00,26.0630,-83.0730,1.3,3.63,125.6,4.88,'11111222,11111222,11111222' 
COMPS,ioos:station:USF.COMPS:C13:1,2019-11-04T22:35:00,26.0630,-83.0730,1.3,3.13,121.6,3.93,'11111222,11111222,11111222' 
COMPS,ioos:station:USF.COMPS:C13:1,2019-11-04T23:35:00,26.0630,-83.0730,1.3,3.92,107.63,5.13,'11111222,11111222,11111222' 
COMPS,ioos:station:USF.COMPS:C13:1,2019-11-05T00:35:00,26.0630,-83.0730,1.3,3.61,125.92,4.57,'11111222,11111222,11111222' 
COMPS,ioos:station:USF.COMPS:C13:1,2019-11-05T01:35:00,26.0630,-83.0730,1.3,3.23,113.24,4.11,'11111222,11111222,11111222' 
COMPS,ioos:station:USF.COMPS:C13:1,2019-11-05T02:35:00,26.0630,-83.0730,1.3,3.66,108.66,4.73,'11111222,11111222,11111222' 
COMPS,ioos:station:USF.COMPS:C13:1,2019-11-05T03:35:00,26.0630,-83.0730,1.3,3.09,95.85,4.47,'11111222,11111222,11111222' 
COMPS,ioos:station:USF.COMPS:C13:1,2019-11-05T04:35:00,26.0630,-83.0730,1.3,4.64,137.71,5.74,'11111222,11111222,11111222' 
COMPS,ioos:station:USF.COMPS:C13:1,2019-11-05T05:35:00,26.0630,-83.0730,1.3,5.74,145.27,7.23,'11111222,11111222,11111222' 
COMPS,ioos:station:USF.COMPS:C13:1,2019-11-05T06:35:00,26.0630,-83.0730,1.3,6.6,136.9,7.99,'11111222,11111222,11111222' 
COMPS,ioos:station:USF.COMPS:C13:1,2019-11-05T07:35:00,26.0630,-83.0730,1.3,6.65,138.6,7.92,'11111222,11111222,11111222' 
COMPS,ioos:station:USF.COMPS:C13:1,2019-11-05T08:35:00,26.0630,-83.0730,1.3,5.59,136.65,6.47,'11111222,11111222,11111222' 
COMPS,ioos:station:USF.COMPS:C13:1,2019-11-05T09:35:00,26.0630,-83.0730,1.3,5.24,133.86,6.45,'11111222,11111222,11111222' 
COMPS,ioos:station:USF.COMPS:C13:1,2019-11-05T10:35:00,26.0630,-83.0730,1.3,5.22,145.41,6.61,'11111222,11111222,11111222' 
COMPS,ioos:station:USF.COMPS:C13:1,2019-11-05T11:35:00,26.0630,-83.0730,1.3,5.77,136.73,6.88,'11111222,11111222,11111222' 
COMPS,ioos:station:USF.COMPS:C13:1,2019-11-05T12:35:00,26.0630,-83.0730,1.3,4.91,131.78,6.1,'11111222,11111222,11111222' 
COMPS,ioos:station:USF.COMPS:C13:1,2019-11-05T13:35:00,26.0630,-83.0730,1.3,5.08,128.35,6.15,'11111222,11111222,11111222' 
COMPS,ioos:station:USF.COMPS:C13:1,2019-11-05T14:35:00,26.0630,-83.0730,1.3,4.99,129.79,6.44,'11111222,11111222,11111222' 
COMPS,ioos:station:USF.COMPS:C13:1,2019-11-05T15:35:00,26.0630,-83.0730,1.3,4.6,132.59,5.72,'11111222,11111222,11111222' 
COMPS,ioos:station:USF.COMPS:C13:1,2019-11-05T16:35:00,26.0630,-83.0730,1.3,3.57,135.23,4.56,'11111222,11111222,11111222' 
COMPS,ioos:station:USF.COMPS:C13:1,2019-11-05T17:35:00,26.0630,-83.0730,1.3,3.82,138.22,5.1,'11111222,11111222,11111222' 
COMPS,ioos:station:USF.COMPS:C13:1,2019-11-05T18:35:00,26.0630,-83.0730,1.3,3.53,134.67,4.46,'11111222,11111222,11111222' 
COMPS,ioos:station:USF.COMPS:C13:1,2019-11-05T19:35:00,26.0630,-83.0730,1.3,2.54,113.53,3.61,'11111222,11111222,11111222' 
COMPS,ioos:station:USF.COMPS:C13:1,2019-11-05T20:35:00,26.0630,-83.0730,1.3,2.63,88.13,3.39,'11111222,11111222,11111222' 
COMPS,ioos:station:USF.COMPS:C13:1,2019-11-05T21:35:00,26.0630,-83.0730,1.3,2.34,87.2,3.08,'11111222,11111222,11111222' 
COMPS,ioos:station:USF.COMPS:C13:1,2019-11-05T22:35:00,26.0630,-83.0730,1.3,2.14,69.49,2.93,'11111222,11111222,11111222' 
COMPS,ioos:station:USF.COMPS:C13:1,2019-11-05T23:35:00,26.0630,-83.0730,1.3,2.01,36.53,2.61,'11111222,11111222,11111222' 
COMPS,ioos:station:USF.COMPS:C13:1,2019-11-06T00:35:00,26.0630,-83.0730,1.3,2.61,31.49,3.43,'11111222,11111222,11111222' 
COMPS,ioos:station:USF.COMPS:C13:1,2019-11-06T01:35:00,26.0630,-83.0730,1.3,3.55,31.57,4.45,'11111222,11111222,11111222' 
COMPS,ioos:station:USF.COMPS:C13:1,2019-11-06T02:35:00,26.0630,-83.0730,1.3,4.63,11.98,5.55,'11111222,11111222,11111222' 
COMPS,ioos:station:USF.COMPS:C13:1,2019-11-06T03:35:00,26.0630,-83.0730,1.3,5.91,8.64,7.34,'11111222,11111222,11111222' 
COMPS,ioos:station:USF.COMPS:C13:1,2019-11-06T04:35:00,26.0630,-83.0730,1.3,6.19,31.77,7.43,'11111222,11111222,11111222' 
COMPS,ioos:station:USF.COMPS:C13:1,2019-11-06T05:35:00,26.0630,-83.0730,1.3,7.49,41.52,9.15,'11111222,11111222,11111222' 
COMPS,ioos:station:USF.COMPS:C13:1,2019-11-06T06:35:00,26.0630,-83.0730,1.3,6.14,33.89,7.4,'11111222,11111222,11111222' 
COMPS,ioos:station:USF.COMPS:C13:1,2019-11-06T07:35:00,26.0630,-83.0730,1.3,7.19,42.36,8.56,'11111222,11111222,11111222' 
COMPS,ioos:station:USF.COMPS:C13:1,2019-11-06T08:35:00,26.0630,-83.0730,1.3,5.52,67.22,6.85,'11111222,11111222,11111222' 
COMPS,ioos:station:USF.COMPS:C13:1,2019-11-06T09:35:00,26.0630,-83.0730,1.3,6.25,78.49,7.82,'11111222,11111222,11111222' 
COMPS,ioos:station:USF.COMPS:C13:1,2019-11-06T10:35:00,26.0630,-83.0730,1.3,5.78,76.44,7.2,'11111222,11111222,11111222' 
COMPS,ioos:station:USF.COMPS:C13:1,2019-11-06T11:35:00,26.0630,-83.0730,1.3,6.27,72.93,7.58,'11111222,11111222,11111222' 
COMPS,ioos:station:USF.COMPS:C13:1,2019-11-06T12:35:00,26.0630,-83.0730,1.3,6.3,73.29,7.49,'11111222,11111222,11111222' 
COMPS,ioos:station:USF.COMPS:C13:1,2019-11-06T13:35:00,26.0630,-83.0730,1.3,6.19,84.38,7.49,'11111222,11111222,11111222' 
COMPS,ioos:station:USF.COMPS:C13:1,2019-11-06T14:35:00,26.0630,-83.0730,1.3,6.16,86.32,7.58,'11111222,11111222,11111222' 
COMPS,ioos:station:USF.COMPS:C13:1,2019-11-06T15:35:00,26.0630,-83.0730,1.3,6.56,81.43,8.01,'11111222,11111222,11111222' 
COMPS,ioos:station:USF.COMPS:C13:1,2019-11-06T16:35:00,26.0630,-83.0730,1.3,6.38,80.0,7.48,'11111222,11111222,11111222' 
COMPS,ioos:station:USF.COMPS:C13:1,2019-11-06T17:35:00,26.0630,-83.0730,1.3,6.29,82.09,7.49,'11111222,11111222,11111222' 
COMPS,ioos:station:USF.COMPS:C13:1,2019-11-06T18:35:00,26.0630,-83.0730,1.3,6.43,72.99,7.8,'11111222,11111222,11111222' 
COMPS,ioos:station:USF.COMPS:C13:1,2019-11-06T19:35:00,26.0630,-83.0730,1.3,6.34,68.26,7.3,'11111222,11111222,11111222' 
COMPS,ioos:station:USF.COMPS:C13:1,2019-11-06T20:35:00,26.0630,-83.0730,1.3,5.94,63.05,7.73,'11111222,11111222,11111222' 
COMPS,ioos:station:USF.COMPS:C13:1,2019-11-06T21:35:00,26.0630,-83.0730,1.3,5.05,57.81,6.35,'11111222,11111222,11111222' 
COMPS,ioos:station:USF.COMPS:C13:1,2019-11-06T22:35:00,26.0630,-83.0730,1.3,4.97,33.46,6.14,'11111222,11111222,11111222' 
COMPS,ioos:station:USF.COMPS:C13:1,2019-11-06T23:35:00,26.0630,-83.0730,1.3,5.86,21.1,7.05,'11111222,11111222,11111222' 
COMPS,ioos:station:USF.COMPS:C13:1,2019-11-07T00:35:00,26.0630,-83.0730,1.3,7.16,13.91,8.72,'11111222,11111222,11111222' 
COMPS,ioos:station:USF.COMPS:C13:1,2019-11-07T01:35:00,26.0630,-83.0730,1.3,6.59,24.99,8.17,'11111222,11111222,11111222' 
COMPS,ioos:station:USF.COMPS:C13:1,2019-11-07T02:35:00,26.0630,-83.0730,1.3,7.42,99.12,11.52,'11111222,11111222,11111222' 
COMPS,ioos:station:USF.COMPS:C13:1,2019-11-07T03:35:00,26.0630,-83.0730,1.3,9.14,88.74,11.32,'11111222,11111222,11111222' 
COMPS,ioos:station:USF.COMPS:C13:1,2019-11-07T04:35:00,26.0630,-83.0730,1.3,9.46,91.31,11.36,'11111222,11111222,11111222' 
COMPS,ioos:station:USF.COMPS:C13:1,2019-11-07T05:35:00,26.0630,-83.0730,1.3,8.87,88.16,11.42,'11111222,11111222,11111222' 
COMPS,ioos:station:USF.COMPS:C13:1,2019-11-07T06:35:00,26.0630,-83.0730,1.3,8.15,90.51,9.89,'11111222,11111222,11111222' 
COMPS,ioos:station:USF.COMPS:C13:1,2019-11-07T07:35:00,26.0630,-83.0730,1.3,8.26,95.65,9.91,'11111222,11111222,11111222' 
COMPS,ioos:station:USF.COMPS:C13:1,2019-11-07T08:35:00,26.0630,-83.0730,1.3,7.82,100.79,9.78,'11111222,11111222,11111222' 
COMPS,ioos:station:USF.COMPS:C13:1,2019-11-07T09:35:00,26.0630,-83.0730,1.3,7.74,104.38,9.38,'11111222,11111222,11111222' 
COMPS,ioos:station:USF.COMPS:C13:1,2019-11-07T10:35:00,26.0630,-83.0730,1.3,7.94,102.38,9.73,'11111222,11111222,11111222' 
COMPS,ioos:station:USF.COMPS:C13:1,2019-11-07T11:35:00,26.0630,-83.0730,1.3,7.25,99.57,9.13,'11111222,11111222,11111222' 
COMPS,ioos:station:USF.COMPS:C13:1,2019-11-07T12:35:00,26.0630,-83.0730,1.3,6.92,96.12,8.45,'11111222,11111222,11111222' 
COMPS,ioos:station:USF.COMPS:C13:1,2019-11-07T13:35:00,26.0630,-83.0730,1.3,7.37,86.94,8.68,'11111222,11111222,11111222' 
COMPS,ioos:station:USF.COMPS:C13:1,2019-11-07T14:35:00,26.0630,-83.0730,1.3,7.05,90.7,8.61,'11111222,11111222,11111222' 
COMPS,ioos:station:USF.COMPS:C13:1,2019-11-07T15:35:00,26.0630,-83.0730,1.3,6.97,90.52,8.32,'11111222,11111222,11111222' 
COMPS,ioos:station:USF.COMPS:C13:1,2019-11-07T16:35:00,26.0630,-83.0730,1.3,6.28,90.0,7.65,'11111222,11111222,11111222' 
COMPS,ioos:station:USF.COMPS:C13:1,2019-11-07T17:35:00,26.0630,-83.0730,1.3,5.01,103.03,6.31,'11111222,11111222,11111222' 
COMPS,ioos:station:USF.COMPS:C13:1,2019-11-07T18:35:00,26.0630,-83.0730,1.3,4.49,99.55,5.56,'11111222,11111222,11111222' 
COMPS,ioos:station:USF.COMPS:C13:1,2019-11-07T19:35:00,26.0630,-83.0730,1.3,4.36,94.61,5.19,'11111222,11111222,11111222' 
COMPS,ioos:station:USF.COMPS:C13:1,2019-11-07T20:35:00,26.0630,-83.0730,1.3,3.07,68.1,4.16,'11111222,11111222,11111222' 
COMPS,ioos:station:USF.COMPS:C13:1,2019-11-07T21:35:00,26.0630,-83.0730,1.3,2.14,73.2,2.88,'11111222,11111222,11111222' 
COMPS,ioos:station:USF.COMPS:C13:1,2019-11-07T22:35:00,26.0630,-83.0730,1.3,1.76,58.22,2.68,'11111222,11111222,11111222' 
COMPS,ioos:station:USF.COMPS:C13:1,2019-11-07T23:35:00,26.0630,-83.0730,1.3,1.98,36.68,2.88,'11111222,11111222,11111222' 
COMPS,ioos:station:USF.COMPS:C13:1,2019-11-08T00:35:00,26.0630,-83.0730,1.3,2.3,37.22,3.09,'11111222,11111222,11111222' 
COMPS,ioos:station:USF.COMPS:C13:1,2019-11-08T01:35:00,26.0630,-83.0730,1.3,3.02,27.9,4.28,'11111222,11111222,11111222' 
COMPS,ioos:station:USF.COMPS:C13:1,2019-11-08T02:35:00,26.0630,-83.0730,1.3,4.11,18.98,5.05,'11111222,11111222,11111222' 
COMPS,ioos:station:USF.COMPS:C13:1,2019-11-08T03:35:00,26.0630,-83.0730,1.3,4.44,22.98,5.68,'11111222,11111222,11111222' 
COMPS,ioos:station:USF.COMPS:C13:1,2019-11-08T04:35:00,26.0630,-83.0730,1.3,5.12,28.68,6.18,'11111222,11111222,11111222' 
COMPS,ioos:station:USF.COMPS:C13:1,2019-11-08T05:35:00,26.0630,-83.0730,1.3,5.18,18.68,6.14,'11111222,11111222,11111222' 
COMPS,ioos:station:USF.COMPS:C13:1,2019-11-08T06:35:00,26.0630,-83.0730,1.3,5.56,27.03,7.02,'11111222,11111222,11111222' 
COMPS,ioos:station:USF.COMPS:C13:1,2019-11-08T07:35:00,26.0630,-83.0730,1.3,4.33,41.08,5.19,'11111222,11111222,11111222' 
COMPS,ioos:station:USF.COMPS:C13:1,2019-11-08T08:35:00,26.0630,-83.0730,1.3,4.36,31.4,5.67,'11111222,11111222,11111222' 
COMPS,ioos:station:USF.COMPS:C13:1,2019-11-08T09:35:00,26.0630,-83.0730,1.3,2.83,107.15,4.61,'11111222,11111222,11111222' 
COMPS,ioos:station:USF.COMPS:C13:1,2019-11-08T10:35:00,26.0630,-83.0730,1.3,1.56,157.76,2.64,'11111222,11111222,11111222' 
COMPS,ioos:station:USF.COMPS:C13:1,2019-11-08T11:35:00,26.0630,-83.0730,1.3,1.62,141.32,2.31,'11111222,11111222,11111222' 
COMPS,ioos:station:USF.COMPS:C13:1,2019-11-08T12:35:00,26.0630,-83.0730,1.3,0.92,82.2,1.58,'11111222,11111222,11111222' 
COMPS,ioos:station:USF.COMPS:C13:1,2019-11-08T13:35:00,26.0630,-83.0730,1.3,0.82,55.2,1.43,'11111222,11111222,11111222' 
COMPS,ioos:station:USF.COMPS:C13:1,2019-11-08T14:35:00,26.0630,-83.0730,1.3,1.42,81.12,2.67,'11111222,11111222,11111222' 
COMPS,ioos:station:USF.COMPS:C13:1,2019-11-08T15:35:00,26.0630,-83.0730,1.3,1.24,75.81,1.79,'11111222,11111222,11111222' 
COMPS,ioos:station:USF.COMPS:C13:1,2019-11-08T16:35:00,26.0630,-83.0730,1.3,1.64,45.85,2.48,'11111222,11111222,11111222' 
COMPS,ioos:station:USF.COMPS:C13:1,2019-11-08T17:35:00,26.0630,-83.0730,1.3,1.66,356.31,2.41,'11111222,11111222,11111222' 
COMPS,ioos:station:USF.COMPS:C13:1,2019-11-08T18:35:00,26.0630,-83.0730,1.3,1.3,9.95,2.26,'11111222,11111222,11111222' 
COMPS,ioos:station:USF.COMPS:C13:1,2019-11-08T19:35:00,26.0630,-83.0730,1.3,1.18,350.29,2.86,'11111222,11111222,11111222' 
COMPS,ioos:station:USF.COMPS:C13:1,2019-11-08T20:35:00,26.0630,-83.0730,1.3,2.44,358.06,3.73,'11111222,11111222,11111222' 
COMPS,ioos:station:USF.COMPS:C13:1,2019-11-08T21:35:00,26.0630,-83.0730,1.3,3.95,343.02,4.95,'11111222,11111222,11111222' 
COMPS,ioos:station:USF.COMPS:C13:1,2019-11-08T22:35:00,26.0630,-83.0730,1.3,6.55,1.27,8.5,'11111222,11111222,11111222' 
COMPS,ioos:station:USF.COMPS:C13:1,2019-11-08T23:35:00,26.0630,-83.0730,1.3,6.57,10.36,8.25,'11111222,11111222,11111222' 
COMPS,ioos:station:USF.COMPS:C13:1,2019-11-09T00:35:00,26.0630,-83.0730,1.3,6.33,20.06,7.73,'11111222,11111222,11111222' 
COMPS,ioos:station:USF.COMPS:C13:1,2019-11-09T01:35:00,26.0630,-83.0730,1.3,6.38,13.46,7.52,'11111222,11111222,11111222' 
COMPS,ioos:station:USF.COMPS:C13:1,2019-11-09T02:35:00,26.0630,-83.0730,1.3,6.1,19.09,7.73,'11111222,11111222,11111222' 
COMPS,ioos:station:USF.COMPS:C13:1,2019-11-09T03:35:00,26.0630,-83.0730,1.3,5.84,24.59,7.24,'11111222,11111222,11111222' 
COMPS,ioos:station:USF.COMPS:C13:1,2019-11-09T04:35:00,26.0630,-83.0730,1.3,6.65,68.53,8.38,'11111222,11111222,11111222' 
COMPS,ioos:station:USF.COMPS:C13:1,2019-11-09T05:35:00,26.0630,-83.0730,1.3,6.1,77.02,7.99,'11111222,11111222,11111222' 
COMPS,ioos:station:USF.COMPS:C13:1,2019-11-09T06:35:00,26.0630,-83.0730,1.3,7.3,78.58,9.17,'11111222,11111222,11111222' 
COMPS,ioos:station:USF.COMPS:C13:1,2019-11-09T07:35:00,26.0630,-83.0730,1.3,8.53,60.29,11.76,'11111222,11111222,11111222' 
COMPS,ioos:station:USF.COMPS:C13:1,2019-11-09T08:35:00,26.0630,-83.0730,1.3,8.71,32.36,10.74,'11111222,11111222,11111222' 
COMPS,ioos:station:USF.COMPS:C13:1,2019-11-09T09:35:00,26.0630,-83.0730,1.3,7.15,37.15,9.16,'11111222,11111222,11111222' 
COMPS,ioos:station:USF.COMPS:C13:1,2019-11-09T10:35:00,26.0630,-83.0730,1.3,9.68,49.07,11.32,'11111222,11111222,11111222' 
COMPS,ioos:station:USF.COMPS:C13:1,2019-11-09T11:35:00,26.0630,-83.0730,1.3,10.77,40.55,12.88,'11111222,11111222,11111222' 